FW9676 Weather Reports


Display with metric or nautical units.
time (UTC)temp
F
wind
direction
speed
MPH
gust
MPH
rain 1hr
in
rain 24hr
in
rain mn
in
humidity
%
barometer
mb
20260831125018 65 0 0.0 0.0 0.00 0.00 0.00 91 1012.1
20260831124550 65 0 0.0 0.0 0.00 0.00 0.00 91 1012.1
20260831124022 65 0 0.0 0.0 0.00 0.00 0.00 91 1012.0
20260831123517 65 0 0.0 0.0 0.00 0.00 0.00 91 1012.0
20260831123036 65 0 0.0 0.0 0.00 0.00 0.00 91 1011.9
20260831122525 66 0 0.0 0.0 0.00 0.00 0.00 91 1012.0
20260831122021 66 0 0.0 0.0 0.00 0.00 0.00 91 1012.0
20260831121537 66 0 0.0 0.0 0.00 0.00 0.00 91 1011.9
20260831121023 66 0 0.0 0.0 0.00 0.00 0.00 91 1011.9
20260831120521 66 0 0.0 0.0 0.00 0.00 0.00 91 1012.0
20260831120044 66 0 0.0 0.0 0.00 0.00 0.00 90 1012.0
20260831115519 66 0 0.0 0.0 0.00 0.00 0.00 91 1011.9
20260831115015 66 0 0.0 0.0 0.00 0.00 0.00 90 1012.0
20260831114547 66 0 0.0 0.0 0.00 0.00 0.00 90 1012.0
20260831114018 67 0 0.0 0.0 0.00 0.00 0.00 90 1011.9
20260831113518 67 0 0.0 0.0 0.00 0.00 0.00 90 1011.9
20260831113037 67 0 0.0 0.0 0.00 0.00 0.00 90 1012.0
20260831112518 67 0 0.0 0.0 0.00 0.00 0.00 89 1012.0
20260831112018 67 0 0.0 0.0 0.00 0.00 0.00 89 1012.0
20260831111537 67 0 0.0 0.0 0.00 0.00 0.00 90 1012.0
20260831111018 67 0 0.0 0.0 0.00 0.00 0.00 89 1012.0
20260831110518 67 0 0.0 0.0 0.00 0.00 0.00 90 1012.0
20260831110034 68 0 0.0 1.0 0.00 0.00 0.00 89 1012.0
20260831105522 68 0 0.0 1.0 0.00 0.00 0.00 89 1012.0
20260831105018 68 0 0.0 1.0 0.00 0.00 0.00 90 1012.0
20260831104548 68 0 0.0 1.0 0.00 0.00 0.00 89 1012.1
20260831104018 68 259 0.0 1.0 0.00 0.00 0.00 89 1012.1
20260831103519 68 0 0.0 1.0 0.00 0.00 0.00 89 1012.1
20260831103038 68 0 0.0 2.0 0.00 0.00 0.00 89 1012.1
20260831102518 68 0 0.0 2.0 0.00 0.00 0.00 89 1012.0
20260831102022 69 0 0.0 2.0 0.00 0.00 0.00 89 1012.2
20260831101539 69 259 0.0 3.0 0.00 0.00 0.00 89 1012.0
20260831101020 69 0 0.0 3.0 0.00 0.00 0.00 89 1012.1
20260831100519 69 241 0.0 3.0 0.00 0.00 0.00 89 1012.2
20260831100042 69 241 1.0 3.0 0.00 0.00 0.00 89 1012.1
20260831095518 69 0 0.0 3.0 0.00 0.00 0.00 89 1012.1
20260831095016 69 245 1.0 5.0 0.00 0.00 0.00 88 1012.2
20260831094536 69 0 0.0 5.0 0.00 0.00 0.00 88 1012.1
20260831094018 69 0 1.0 5.0 0.00 0.00 0.00 89 1012.1
20260831093524 69 0 1.0 3.0 0.00 0.00 0.00 88 1012.2
20260831093042 68 264 1.0 3.0 0.00 0.00 0.00 87 1012.1
20260831092519 68 263 0.0 1.0 0.00 0.00 0.00 87 1012.1
20260831092020 68 0 0.0 0.0 0.00 0.00 0.00 87 1012.1
20260831091534 68 0 0.0 0.0 0.00 0.00 0.00 87 1012.2
20260831091021 68 0 0.0 2.0 0.00 0.00 0.00 87 1012.1
20260831090518 68 0 0.0 2.0 0.00 0.00 0.00 87 1012.1
20260831090035 68 0 0.0 0.0 0.00 0.00 0.00 86 1012.1
20260831085516 68 0 0.0 0.0 0.00 0.00 0.00 86 1012.1
20260831085018 68 0 0.0 0.0 0.00 0.00 0.00 86 1012.0
20260831084535 68 0 0.0 0.0 0.00 0.00 0.00 86 1012.1
20260831084019 69 0 0.0 0.0 0.00 0.00 0.00 85 1012.0
20260831083520 69 0 0.0 0.0 0.00 0.00 0.00 85 1012.1
20260831083046 69 0 0.0 0.0 0.00 0.00 0.00 85 1012.1
20260831082521 69 0 0.0 1.0 0.00 0.00 0.00 85 1012.2
20260831082016 69 0 0.0 1.0 0.00 0.00 0.00 85 1012.2
20260831081536 69 0 0.0 2.0 0.00 0.00 0.00 85 1012.2
20260831081019 69 0 0.0 2.0 0.00 0.00 0.00 85 1012.2
20260831080515 69 0 0.0 2.0 0.00 0.00 0.00 85 1012.3
20260831080036 69 0 0.0 2.0 0.00 0.00 0.00 85 1012.3
20260831075518 69 262 0.0 3.0 0.00 0.00 0.00 85 1012.3
20260831075019 69 262 0.0 3.0 0.00 0.00 0.00 85 1012.3
20260831074538 69 272 0.0 2.0 0.00 0.00 0.00 84 1012.1
20260831074025 69 0 0.0 2.0 0.00 0.00 0.00 84 1012.2
20260831073520 69 0 0.0 0.0 0.00 0.00 0.00 84 1012.2
20260831073046 69 0 0.0 0.0 0.00 0.00 0.00 84 1012.2
20260831072521 69 0 0.0 1.0 0.00 0.00 0.00 83 1012.1
20260831072019 69 0 0.0 1.0 0.00 0.00 0.00 83 1012.0
20260831071537 69 0 0.0 1.0 0.00 0.00 0.00 83 1012.0
20260831071016 69 0 0.0 1.0 0.00 0.00 0.00 84 1012.0
20260831070519 69 0 0.0 1.0 0.00 0.00 0.00 84 1012.0
20260831070048 70 0 0.0 1.0 0.00 0.00 0.00 85 1012.0
20260831065519 69 0 0.0 1.0 0.00 0.00 0.00 85 1011.9
20260831065022 70 0 0.0 2.0 0.00 0.00 0.00 85 1011.9
20260831064540 70 0 0.0 2.0 0.00 0.00 0.00 86 1011.9
20260831064016 70 0 0.0 2.0 0.00 0.00 0.00 86 1011.9
20260831063517 70 0 0.0 1.0 0.00 0.00 0.00 86 1011.9
20260831063038 70 0 0.0 1.0 0.00 0.00 0.00 87 1011.8
20260831062517 70 74 0.0 1.0 0.00 0.00 0.00 87 1011.9
20260831062018 70 0 0.0 1.0 0.00 0.00 0.00 88 1011.9
20260831061536 70 0 0.0 2.0 0.00 0.00 0.00 88 1011.9
20260831061018 70 0 0.0 2.0 0.00 0.00 0.00 89 1011.8
20260831060523 71 74 0.0 2.0 0.00 0.00 0.00 89 1011.9
20260831060041 71 0 0.0 2.0 0.00 0.00 0.00 89 1011.9
20260831055517 71 0 0.0 2.0 0.00 0.00 0.00 89 1011.7
20260831055021 71 180 0.0 3.0 0.00 0.00 0.00 90 1011.8
20260831054537 71 0 0.0 3.0 0.00 0.00 0.00 90 1011.8
20260831054021 71 0 0.0 4.0 0.00 0.00 0.00 90 1011.7
20260831053521 71 0 1.0 4.0 0.00 0.00 0.00 89 1011.8
20260831053036 71 232 2.0 7.0 0.00 0.00 0.00 90 1011.8
20260831052516 71 199 2.0 7.0 0.00 0.00 0.00 89 1011.9
20260831052017 71 223 2.0 6.0 0.00 0.00 0.00 90 1011.8
20260831051536 71 266 2.0 6.0 0.00 0.00 0.00 89 1011.8
20260831051018 72 261 1.0 6.0 0.00 0.00 0.00 89 1011.9
20260831050519 72 263 1.0 7.0 0.00 0.00 0.00 89 1012.0
20260831050055 72 274 1.0 7.0 0.00 0.00 0.00 88 1012.0
20260831045520 72 266 2.0 7.0 0.00 0.00 0.00 88 1011.9
20260831045020 72 257 3.0 7.0 0.00 0.00 0.00 87 1011.8
20260831044546 72 242 2.0 7.0 0.00 0.00 0.00 87 1011.9
20260831044019 72 261 3.0 7.0 0.00 0.00 0.00 87 1011.9
20260831043519 72 265 0.0 3.0 0.00 0.00 0.00 86 1011.9
20260831043039 72 239 0.0 3.0 0.00 0.00 0.00 86 1011.9
20260831042518 72 0 0.0 3.0 0.00 0.00 0.00 86 1011.8
20260831042020 72 0 1.0 3.0 0.00 0.00 0.00 86 1011.8
20260831041535 72 0 1.0 3.0 0.00 0.00 0.00 86 1011.8
20260831041020 72 263 0.0 3.0 0.00 0.00 0.00 86 1011.7
20260831040520 72 0 1.0 3.0 0.00 0.00 0.00 86 1011.6
20260831040038 72 0 0.0 6.0 0.00 0.00 0.00 86 1011.5
20260831035516 72 271 1.0 6.0 0.00 0.00 0.00 86 1011.5
20260831035019 72 286 1.0 4.0 0.00 0.00 0.00 86 1011.4
20260831034537 72 265 2.0 5.0 0.00 0.00 0.00 86 1011.3
20260831034016 72 223 0.0 5.0 0.00 0.00 0.00 86 1011.2
20260831033518 72 263 1.0 5.0 0.00 0.00 0.00 85 1011.0
20260831033037 72 266 1.0 7.0 0.00 0.00 0.00 85 1011.0
20260831032525 72 263 1.0 7.0 0.00 0.00 0.00 85 1010.9
20260831032018 72 246 2.0 7.0 0.00 0.00 0.00 84 1010.9
20260831031543 72 0 2.0 6.0 0.00 0.00 0.00 83 1010.8
20260831031017 72 265 1.0 6.0 0.00 0.00 0.00 83 1010.7
20260831030519 73 252 1.0 6.0 0.00 0.00 0.00 82 1010.7
20260831030033 73 230 2.0 5.0 0.00 0.00 0.00 81 1010.6
20260831025519 73 217 1.0 7.0 0.00 0.00 0.00 81 1010.7
20260831025017 73 280 1.0 7.0 0.00 0.00 0.00 79 1010.7
20260831024557 73 256 2.0 7.0 0.00 0.00 0.00 78 1010.6
20260831024017 73 226 3.0 10.0 0.00 0.00 0.00 76 1010.6
20260831023517 73 228 3.0 10.0 0.00 0.00 0.00 76 1010.7
20260831023040 73 259 4.0 11.0 0.00 0.00 0.00 77 1010.7
20260831022518 73 212 3.0 11.0 0.00 0.00 0.00 77 1010.6
20260831022020 73 239 3.0 9.0 0.00 0.00 0.00 77 1010.7
20260831021535 73 231 1.0 9.0 0.00 0.00 0.00 77 1010.7
20260831021020 73 225 3.0 11.0 0.00 0.00 0.00 78 1010.7
20260831020519 73 229 3.0 13.0 0.00 0.00 0.00 78 1010.7
20260831020059 73 231 4.0 14.0 0.00 0.00 0.00 78 1010.6
20260831015517 73 236 7.0 14.0 0.00 0.00 0.00 79 1010.5
20260831015016 73 248 6.0 12.0 0.00 0.00 0.00 80 1010.6
20260831014554 73 279 5.0 13.0 0.00 0.00 0.00 80 1010.6
20260831014018 74 234 5.0 14.0 0.00 0.00 0.00 81 1010.6
20260831013521 74 277 5.0 14.0 0.00 0.00 0.00 81 1010.6
20260831013035 74 249 6.0 14.0 0.00 0.00 0.00 81 1010.5
20260831012520 74 271 6.0 14.0 0.00 0.00 0.00 82 1010.5
20260831012019 74 256 5.0 13.0 0.00 0.00 0.00 82 1010.5
20260831011538 74 224 6.0 15.0 0.00 0.00 0.00 83 1010.6
20260831011016 74 318 7.0 15.0 0.00 0.00 0.00 83 1010.6
20260831010518 75 244 4.0 13.0 0.00 0.00 0.00 82 1010.6
20260831010044 75 266 4.0 12.0 0.00 0.00 0.00 83 1010.6
20260831005516 75 263 7.0 14.0 0.00 0.00 0.00 82 1010.7
20260831005019 76 231 7.0 14.0 0.00 0.00 0.00 82 1010.6
20260831004539 76 273 6.0 14.0 0.00 0.00 0.00 81 1010.6
20260831004020 76 291 5.0 13.0 0.00 0.00 0.00 81 1010.5
20260831003526 76 222 7.0 13.0 0.00 0.00 0.00 81 1010.5
20260831003037 77 269 7.0 14.0 0.00 0.00 0.00 80 1010.5
20260831002518 77 252 6.0 15.0 0.00 0.00 0.00 81 1010.4
20260831002018 77 216 5.0 15.0 0.00 0.00 0.00 81 1010.4
20260831001542 78 261 8.0 15.0 0.00 0.00 0.00 79 1010.3
20260831001019 78 269 4.0 15.0 0.00 0.00 0.00 80 1010.4
20260831000520 78 257 7.0 15.0 0.00 0.00 0.00 80 1010.3
20260831000036 78 263 7.0 15.0 0.00 0.00 0.00 80 1010.2
20260830235522 78 213 7.0 17.0 0.00 0.00 0.00 81 1010.2
20260830235018 78 270 7.0 17.0 0.00 0.00 0.00 81 1010.3
20260830234553 79 219 7.0 17.0 0.00 0.00 0.00 80 1010.3
20260830234015 79 298 6.0 15.0 0.00 0.00 0.00 80 1010.4
20260830233516 79 229 7.0 17.0 0.00 0.00 0.00 80 1010.4
20260830233036 79 242 8.0 17.0 0.00 0.00 0.00 78 1010.3
20260830232520 79 227 5.0 14.0 0.00 0.00 0.00 79 1010.4
20260830232020 79 223 6.0 14.0 0.00 0.00 0.00 80 1010.4
20260830231537 79 267 7.0 13.0 0.00 0.00 0.00 79 1010.5
20260830231019 79 234 6.0 14.0 0.00 0.00 0.00 79 1010.6
20260830230519 79 244 7.0 14.0 0.00 0.00 0.00 79 1010.6
20260830230039 80 227 6.0 12.0 0.00 0.00 0.00 78 1010.6
20260830225518 80 261 4.0 12.0 0.00 0.00 0.00 79 1010.6
20260830225019 80 248 6.0 12.0 0.00 0.00 0.00 79 1010.7
20260830224541 80 196 6.0 12.0 0.00 0.00 0.00 78 1010.7
20260830224019 80 232 5.0 12.0 0.00 0.00 0.00 78 1010.8
20260830223520 80 248 6.0 12.0 0.00 0.00 0.00 78 1010.9
20260830223040 80 240 5.0 12.0 0.00 0.00 0.00 78 1011.0
20260830222519 80 288 4.0 13.0 0.00 0.00 0.00 78 1011.0
20260830222022 79 252 6.0 13.0 0.00 0.00 0.00 78 1011.0
20260830221536 80 267 6.0 13.0 0.00 0.00 0.00 77 1011.1
20260830221018 80 256 4.0 10.0 0.00 0.00 0.00 78 1011.1
20260830220516 80 264 4.0 12.0 0.00 0.00 0.00 78 1011.2
20260830220039 80 239 6.0 12.0 0.00 0.00 0.00 78 1011.2
20260830215518 80 200 6.0 14.0 0.00 0.00 0.00 78 1011.2
20260830215020 80 227 4.0 14.0 0.00 0.00 0.00 78 1011.3
20260830214539 80 269 6.0 14.0 0.00 0.00 0.00 78 1011.4
20260830214019 80 273 7.0 13.0 0.00 0.00 0.00 77 1011.6
20260830213516 80 235 5.0 13.0 0.00 0.00 0.00 77 1011.6
20260830213035 80 267 5.0 13.0 0.00 0.00 0.00 78 1011.6
20260830212518 80 215 6.0 15.0 0.00 0.00 0.00 77 1011.7
20260830212020 80 265 6.0 15.0 0.00 0.00 0.00 78 1011.6
20260830211537 80 235 7.0 15.0 0.00 0.00 0.00 78 1011.8
20260830211019 80 249 7.0 14.0 0.00 0.00 0.00 79 1011.9
20260830210519 80 253 7.0 15.0 0.00 0.00 0.00 78 1011.9
20260830210036 80 238 6.0 15.0 0.00 0.00 0.00 78 1012.0
20260830205523 80 211 7.0 14.0 0.00 0.00 0.00 78 1012.1
20260830205022 81 277 9.0 14.0 0.00 0.00 0.00 77 1012.1
20260830204536 81 207 7.0 14.0 0.00 0.00 0.00 78 1012.0
20260830204021 81 230 7.0 14.0 0.00 0.00 0.00 77 1012.1
20260830203518 81 200 5.0 12.0 0.00 0.00 0.00 78 1012.1
20260830203035 81 273 6.0 12.0 0.00 0.00 0.00 77 1012.1
20260830202516 81 273 6.0 12.0 0.00 0.00 0.00 78 1012.2
20260830202016 81 238 6.0 14.0 0.00 0.00 0.00 77 1012.1
20260830201603 81 258 6.0 14.0 0.00 0.00 0.00 77 1012.1
20260830201021 81 242 7.0 12.0 0.00 0.00 0.00 77 1012.1
20260830200521 81 204 6.0 13.0 0.00 0.00 0.00 77 1012.0
20260830200037 81 262 7.0 14.0 0.00 0.00 0.00 77 1012.1
20260830195519 82 287 6.0 14.0 0.00 0.00 0.00 76 1012.1
20260830195021 81 229 5.0 14.0 0.00 0.00 0.00 77 1012.0
20260830194536 82 250 6.0 14.0 0.00 0.00 0.00 76 1012.0
20260830194019 82 254 6.0 14.0 0.00 0.00 0.00 76 1012.0
20260830193519 82 254 6.0 14.0 0.00 0.00 0.00 76 1012.0
20260830193040 82 277 6.0 14.0 0.00 0.00 0.00 75 1012.1
20260830192515 82 239 5.0 12.0 0.00 0.00 0.00 76 1012.0
20260830192015 82 207 4.0 13.0 0.00 0.00 0.00 76 1012.1
20260830191544 81 257 6.0 13.0 0.00 0.00 0.00 76 1012.1
20260830191024 81 228 5.0 13.0 0.00 0.00 0.00 77 1012.2
20260830190520 81 273 5.0 12.0 0.00 0.00 0.00 77 1012.3
20260830190039 81 223 5.0 12.0 0.00 0.00 0.00 76 1012.3
20260830185520 81 269 6.0 13.0 0.00 0.00 0.00 76 1012.4
20260830185019 81 273 6.0 13.0 0.00 0.00 0.00 77 1012.4
20260830184541 81 228 6.0 12.0 0.00 0.00 0.00 76 1012.4
20260830184019 81 277 5.0 11.0 0.00 0.00 0.00 76 1012.4
20260830183520 81 253 4.0 11.0 0.00 0.00 0.00 76 1012.3
20260830183034 81 223 4.0 11.0 0.00 0.00 0.00 75 1012.3
20260830182516 81 248 4.0 10.0 0.00 0.00 0.00 75 1012.2
20260830182016 81 234 4.0 10.0 0.00 0.00 0.00 75 1012.3
20260830181553 81 263 4.0 11.0 0.00 0.00 0.00 75 1012.3
20260830181020 81 271 4.0 11.0 0.00 0.00 0.00 74 1012.3
20260830180519 81 240 4.0 10.0 0.00 0.00 0.00 74 1012.3
20260830180035 81 257 5.0 10.0 0.00 0.00 0.00 73 1012.3
20260830175517 81 246 5.0 10.0 0.00 0.00 0.00 72 1012.3
20260830175020 81 276 3.0 9.0 0.00 0.00 0.00 72 1012.3
20260830174534 81 249 4.0 10.0 0.00 0.00 0.00 71 1012.2
20260830174018 81 263 5.0 10.0 0.00 0.00 0.00 71 1012.3
20260830173520 82 263 3.0 8.0 0.00 0.00 0.00 70 1012.3
20260830173037 82 252 3.0 8.0 0.00 0.00 0.00 71 1012.3
20260830172518 81 219 2.0 8.0 0.00 0.00 0.00 71 1012.3
20260830172020 81 217 2.0 8.0 0.00 0.00 0.00 71 1012.2
20260830171538 81 283 2.0 8.0 0.00 0.00 0.00 72 1012.2
20260830171019 81 261 2.0 6.0 0.00 0.00 0.00 72 1012.2
20260830170520 80 260 1.0 5.0 0.00 0.00 0.00 72 1012.2
20260830170036 80 248 2.0 5.0 0.00 0.00 0.00 72 1012.2
20260830165516 80 265 1.0 4.0 0.00 0.00 0.00 72 1012.1
20260830165018 80 236 2.0 4.0 0.00 0.00 0.00 72 1012.1
20260830164538 80 261 1.0 5.0 0.00 0.00 0.00 73 1012.2
20260830164020 80 217 2.0 5.0 0.00 0.00 0.00 72 1012.2
20260830163520 81 242 1.0 4.0 0.00 0.00 0.00 71 1012.2
20260830163036 81 167 0.0 4.0 0.00 0.00 0.00 71 1012.2
20260830162521 81 0 0.0 4.0 0.00 0.00 0.00 71 1012.2
20260830162017 80 137 0.0 4.0 0.00 0.00 0.00 72 1012.2
20260830161535 80 172 0.0 5.0 0.00 0.00 0.00 72 1012.2
20260830161016 79 120 1.0 6.0 0.00 0.00 0.00 73 1012.1
20260830160516 79 71 2.0 6.0 0.00 0.00 0.00 73 1012.2
20260830160037 78 0 0.0 2.0 0.00 0.00 0.00 75 1012.1
20260830155520 78 0 1.0 3.0 0.00 0.00 0.00 75 1012.2
20260830155019 78 0 0.0 3.0 0.00 0.00 0.00 76 1012.1
20260830154535 77 0 0.0 2.0 0.00 0.00 0.00 77 1012.2
20260830154018 77 269 0.0 3.0 0.00 0.00 0.00 77 1012.2
20260830153519 77 269 0.0 3.0 0.00 0.00 0.00 77 1012.2
20260830153040 77 238 0.0 2.0 0.00 0.00 0.00 78 1012.2
20260830152519 76 238 0.0 2.0 0.00 0.00 0.00 78 1012.2
20260830152019 76 238 0.0 2.0 0.00 0.00 0.00 80 1012.2
20260830151536 76 238 0.0 2.0 0.00 0.00 0.00 80 1012.2
20260830151019 76 0 0.0 1.0 0.00 0.00 0.00 81 1012.2
20260830150518 75 238 0.0 1.0 0.00 0.00 0.00 82 1012.2
20260830150038 75 0 0.0 0.0 0.00 0.00 0.00 82 1012.1
20260830145517 74 0 0.0 0.0 0.00 0.00 0.00 83 1012.1
20260830145020 73 0 0.0 0.0 0.00 0.00 0.00 85 1012.2
20260830144542 72 0 0.0 0.0 0.00 0.00 0.00 86 1012.1
20260830144017 72 0 0.0 0.0 0.00 0.00 0.00 87 1012.1
20260830143518 71 0 0.0 0.0 0.00 0.00 0.00 88 1012.0
20260830143035 70 0 0.0 0.0 0.00 0.00 0.00 89 1012.0
20260830142518 69 0 0.0 0.0 0.00 0.00 0.00 90 1012.0
20260830142017 69 0 0.0 0.0 0.00 0.00 0.00 90 1011.9
20260830141534 68 0 0.0 0.0 0.00 0.00 0.00 90 1011.9
20260830141018 68 0 0.0 0.0 0.00 0.00 0.00 91 1011.8
20260830140515 68 0 0.0 0.0 0.00 0.00 0.00 90 1011.8
20260830140040 67 0 0.0 0.0 0.00 0.00 0.00 90 1011.8
20260830135521 67 0 0.0 0.0 0.00 0.00 0.00 90 1011.7
20260830135020 67 0 0.0 0.0 0.00 0.00 0.00 90 1011.8
20260830134536 67 0 0.0 0.0 0.00 0.00 0.00 90 1011.7
20260830134020 67 0 0.0 0.0 0.00 0.00 0.00 89 1011.7
20260830133522 67 0 0.0 0.0 0.00 0.00 0.00 89 1011.7
20260830133042 67 0 0.0 0.0 0.00 0.00 0.00 89 1011.5
20260830132518 67 0 0.0 0.0 0.00 0.00 0.00 89 1011.5
20260830132018 68 0 0.0 0.0 0.00 0.00 0.00 89 1011.3
20260830131536 68 0 0.0 0.0 0.00 0.00 0.00 89 1011.3
20260830131016 68 0 0.0 0.0 0.00 0.00 0.00 89 1011.3
20260830130524 68 0 0.0 0.0 0.00 0.00 0.00 89 1011.2
20260830130044 68 0 0.0 0.0 0.00 0.00 0.00 89 1011.3
20260830125517 68 0 0.0 0.0 0.00 0.00 0.00 89 1011.3